OPS 4682 DEB, 38400

Orbit data source: Space-Track

OPS 4682 DEB, 38400 is space debris in LEO originally from a launch on Sat, 03 Apr 1965 UTC launched from the Air Force Western Test Range (AFWTR). Debris objects in space refer to the collection of defunct objects orbiting the Earth. Examples of debris include non-operational satellites, rocket bodies, and fragments generated from explosions, collisions, or faulty payload assembly.

Loading next visibility...
Identifier
38400, 1965-027DD
Orbit
LEO
Country
Flag of USUS
Related business
Manufacturer
Unknown
Mission
Spacecraft
Bus & Motor
Unknown
Mass
Unknown
Launch date (UTC)
1965-04-03 (61 years ago)
Launch vehicle
Unknown
Launch site
Air Force Western Test Range (AFWTR)
Object type
Payload
Rocket body
Debris
Shape & HBR
Unknown shape, 0.1 m
Radar Cross Section
Small (<0.1 m²)

Expand to show TLE details & history
Last TLE update: 10 hours ago

TLE from 10 hours ago
0 OPS 4682 DEB
1 38400U 65027DD  26104.44921122  .00000404  00000-0  13447-2 0  9992
2 38400  90.2582  15.7214 0031463 164.9682 195.2381 12.98451066605996
Epoch: 2026-04-14T10:46Z
TLE epoch observation values (Epoch: 2026-04-14T10:46:51.849Z)
Latitude
-0.00007°
Longitude
11.38006°
Altitude
1,294.264 km
Speed
7.198 km/s
True Right ascension
01h 02m 53s
True Declination
0° 00' 00"
Sunlit
Object was in daylight at epoch
Visualization orbit readout
Latitude
Unknown
Longitude
Unknown
Altitude
Unknown
Speed
Unknown
Apparent Right ascension
Unknown
Apparent Declination
Unknown
Sunlit
N/A
Visualization observer readout
Local Sidereal Time
03:32:10
Azimuth
Unknown
Elevation
Unknown
Doppler factor
Unknown
Orbital elements
Apogee altitude
1,289.339 km
Perigee altitude
1,241.242 km
Semi-major axis
7,643.428 km
Eccentricity
0.00315
Inclination
90.2582°
RAAN
15.7214°
Arg. of periapsis
164.9682°
True anomaly
195.1437°
Mean anomaly
195.2381°
Eccentric anomaly
195.19086°
Mean motion
3.24796 °/min
Orbital period
110.84 mins
BSTAR
0.0013447
Loading maneuver chart data...
Computing Atmospheric mass density...
Loading historical data...
Loading historical data...
Loading historical data...
Loading historical data...
Loading historical data...
Loading historical data...
Loading historical data...

Documentation

Showing up to 5 results
|